Regional Weather Roundup
Issued by NWS Sterling, VA

Home | Current Version | Previous Version | Text Only | Print | Product List | Glossary On
Versions: 1 2 3 4 5 6 7 8 9 10 11 12 13 14 15 16 17 18 19 20 21 22 23 24 25 26 27
000
ASUS41 KLWX 302011
RWRLWX

REGIONAL WEATHER ROUNDUP
NATIONAL WEATHER SERVICE BALTIMORE MD/WASHINGTON DC
400 PM EDT FRI SEP 30 2016

Note: "FAIR" indicates few or no clouds below 12,000 feet
with no significant weather and/or obstructions to visibility.
 TC=TEMPERATURE CELSIUS

 * =Non NWS site. Station does not report precipitation (e.g. rain,
    snow, etc.), thunder, or fog.

DCZ001-MDZ009-015-VAZ040>042-051-053>054-302100-
WASHINGTON METRO

CITY           SKY/WX    TMP DP  RH WIND       PRES   REMARKS
WASHINGTON NAT DRIZZLE   65  64  97 NE14      30.11F FOG
DULLES         DRIZZLE   63  60  90 NE15      30.12F FOG
ANDREWS AFB    CLOUDY    64  63  95 NE9       30.09F
FT BELVOIR     CLOUDY    64  62  92 VRB5      30.10F
QUANTICO       CLOUDY    67  64  90 NE14G24   30.09F
LEESBURG*      LGT RAIN  61  61 100 NE8       30.14F
MANASSAS*      CLOUDY    64  64 100 NE7       30.11F
GAITHERSBURG*  CLOUDY    61  57  88 NE6       30.17S

$$

MDZ006>007-011-014-302100-
BALTIMORE METRO

CITY           SKY/WX    TMP DP  RH WIND       PRES   REMARKS
BWI AIRPORT    DRIZZLE   62  60  93 NE14      30.13S
MD SCIENCE CTR   N/A     64  59  83 MISG      30.15F
MARTIN STATE   CLOUDY    64  63  94 NE6       30.15F
ANNAPOLIS      CLOUDY    67  64  90 NE9       30.12S
FORT MEADE*    CLOUDY    61  59  94 NE9       30.15F

$$

MDZ012-015-019>023-302100-
MARYLAND EASTERN SHORE

CITY           SKY/WX    TMP DP  RH WIND       PRES   REMARKS
OCEAN CITY     CLOUDY    69  68  96 NE12      30.08S
SALISBURY      CLOUDY    69  68  96 NE12      30.08F FOG
EASTON*        CLOUDY    68  64  88 E18G25    30.14F

$$

MDZ017>025-302100-
SOUTHERN MARYLAND

CITY           SKY/WX    TMP DP  RH WIND       PRES   REMARKS
PATUXENT RIVER CLOUDY    69  65  86 NE10      30.07F
ST INIGOES     CLOUDY    70  68  93 NE10      30.06F
LEONARDTOWN*   CLOUDY    68  64  88 NE6       30.09F

$$

MDZ003>005-302100-
NORTH CENTRAL MARYLAND

CITY           SKY/WX    TMP DP  RH WIND       PRES   REMARKS
FREDERICK*     DRIZZLE   61  61 100 N8        30.18F
HAGERSTOWN APT CLOUDY    61  54  77 NE9       30.16F

$$

MDZ501>502-302100-
WESTERN MARYLAND

CITY           SKY/WX    TMP DP  RH WIND       PRES   REMARKS
OAKLAND*       CLOUDY    52  52 100 E15G22    30.12F FOG
CUMBERLAND*    CLOUDY    59  59 100 N3        30.20R

$$

VAZ025>031-302100-
SHENANDOAH VALLEY

CITY           SKY/WX    TMP DP  RH WIND       PRES   REMARKS
WINCHESTER*    CLOUDY    59  57  94 NE5       30.15S FOG
FRONT ROYAL*   CLOUDY    59  59 100 N8        30.12S
LURAY*         CLOUDY    61  61 100 N14       30.11S
NEW MARKET*    CLOUDY   N/A N/A N/A N10G16    30.10R
STAUNTON*      LGT RAIN  59  58  98 N8        30.11S
WAYNESBORO*    CLOUDY    60  59  96 N7        30.08F

$$

WVZ021-048>050-054>055-302100-
EASTERN WEST VIRGINIA PANHANDLE

CITY           SKY/WX    TMP DP  RH WIND       PRES   REMARKS
MARTINSBURG    LGT RAIN  58  57  97 NE9       30.14F FOG
PETERSBURG*    LGT RAIN  59  58  96 N7        30.12F

$$

VAZ036>039-050-302100-
CENTRAL FOOTHILLS

CITY           SKY/WX    TMP DP  RH WIND       PRES   REMARKS
CHARLOTTESVILL LGT RAIN  64  61  90 NE14      30.06F FOG
CULPEPER*      DRIZZLE   64  64  99 N7        30.10F
ORANGE*          N/A     64  64 100 N9        30.09F FOG
GORDONSVILLE*  CLOUDY    63  63 100 NE9       30.07F FOG
WARRENTON*     DRIZZLE   64  59  85 NE10      30.10F

$$

VAZ055>057-302100-
NORTH AND CENTRAL PIEDMONT

CITY           SKY/WX    TMP DP  RH WIND       PRES   REMARKS
FREDERICKSBRG* DRIZZLE   67  67 100 NE5       30.06F
STAFFORD*      CLOUDY    65  65 100 NE9       30.12F FOG

$$

NCZ024-NYZ072-PAZ021-071-VAZ022-071-302100-
OTHER REGIONAL OBSERVATIONS

CITY           SKY/WX    TMP DP  RH WIND       PRES   REMARKS
NEW YORK CITY  LGT RAIN  59  57  93 E14G21    30.27F FOG
PHILADELPHIA   CLOUDY    63  59  87 NE16G28   30.18F
PITTSBURGH     LGT RAIN  60  58  92 SE6       30.11R
ROANOKE        PTSUNNY   70  65  84 NE7       30.02F
RICHMOND       CLOUDY    73  70  90 NE7       30.02F
RALEIGH        PTSUNNY   83  71  67 S8        29.97S

$$

ANZ530>537-302100-
MARINE OBSERVATIONS

STATION/POSITION TIME  TEMP    WIND        PRES
                       AIR SEA DIR/SP/G
                 (UTC) (F)     (DEG/KT/KT) (MB)
THOMAS PT LIGHT  2000   67 71   60/ 16/ 19 1020.7F
BALT KEY BRIDGE  1942   63      40/ 10/ 11 1020.4F
COVE POINT       1942   69     100/ 17/ 22 1018.9F
LEWISETTA        1942   71 72   70/ 14/ 19 1017.2F
SOLOMONS ISLAND  1942   69 73   60/ 14/ 17   N/A
PINEY POINT      1948           80/ 12/ 14   N/A

$$





USA.gov is the U.S. government's official web portal to all federal, state and local government web resources and services.